Weather History for KCLM - January, 2014

Change the Weather History Date:

Sunday, January 12, 2014

  Actual Average Record
Temperature  
Mean Temperature 47 °F -  
Max Temperature 53 °F - - ()
Min Temperature 41 °F - - ()
Degree Days  
Heating Degree Days 18    
Moisture  
Dew Point 39 °F    
Average Humidity 76    
Maximum Humidity 96    
Minimum Humidity 58    
Precipitation  
Precipitation 0.04 in - - ()
Sea Level Pressure  
Sea Level Pressure 30.03 in    
Wind  
Wind Speed 11 mph (West)    
Max Wind Speed 21 mph    
Max Gust Speed 31 mph    
Visibility 10 miles    
Events Rain    
T = Trace of Precipitation, MM = Missing Value Source: NWS Daily Summary

Daily Weather History Graph

Daily Weather History Graph

Search for Another Location

Airport or City:

Trip Planner

Search our weather history database for the weather conditions in past years. The results will help you decide how hot, cold, wet, or windy it might be!

Date:

Astronomy

Jan. 12, 2014 Rise Set
Actual Time 8:01 AM PST 4:44 PM PST
Civil Twilight 7:25 AM PST 5:19 PM PST
Nautical Twilight 6:46 AM PST 5:58 PM PST
Astronomical Twilight 6:09 AM PST 6:35 PM PST
Moon 2:17 PM PST (1/12) 5:02 AM PST (1/12)
Length of Visible Light 9h 53m
Length of Day
8h 42m
Waxing Gibbous, 90% of the Moon is Illuminated
Jan 12
Waxing Gibbous
Jan 15
Full
Jan 23
Last Quarter
Jan 30
New
Feb 6
First Quarter

Hourly Weather History & Observations

Time (PST) Temp. Windchill Dew Point Humidity Pressure Visibility Wind Dir Wind Speed Gust Speed Precip Events Conditions
12:53 AM 46.0 °F 38.3 °F 32.0 °F 58% 29.84 in 10.0 mi West 20.7 mph 31.1 mph N/A   Scattered Clouds
1:53 AM 44.1 °F 36.5 °F 33.1 °F 65% 29.89 in 10.0 mi West 17.3 mph 26.5 mph 0.00 in   Partly Cloudy
2:53 AM 45.0 °F 37.9 °F 33.1 °F 63% 29.91 in 10.0 mi WNW 16.1 mph - N/A   Overcast
3:53 AM 44.1 °F 38.6 °F 35.1 °F 71% 29.94 in 10.0 mi West 10.4 mph - 0.00 in   Overcast
4:53 AM 43.0 °F 38.8 °F 35.1 °F 74% 29.94 in 10.0 mi NW 6.9 mph - 0.00 in   Overcast
5:53 AM 44.1 °F - 34.0 °F 68% 29.95 in 10.0 mi Calm Calm - N/A   Overcast
6:53 AM 42.1 °F 37.1 °F 37.0 °F 82% 29.97 in 10.0 mi SE 8.1 mph - 0.00 in Rain Light Rain
7:34 AM 42.1 °F 36.6 °F 37.9 °F 85% 29.96 in 10.0 mi SE 9.2 mph - 0.02 in Rain Light Rain
7:53 AM 42.1 °F 40.2 °F 39.0 °F 89% 29.96 in 10.0 mi East 3.5 mph - 0.02 in Rain Light Rain
8:30 AM 41.0 °F - 39.0 °F 93% 29.95 in 6.0 mi Calm Calm - 0.02 in Rain Light Rain
8:38 AM 41.0 °F - 39.9 °F 96% 29.95 in 10.0 mi Calm Calm - 0.02 in   Overcast
8:53 AM 41.0 °F 39.0 °F 39.0 °F 93% 29.97 in 10.0 mi WNW 3.5 mph - 0.02 in   Overcast
9:53 AM 42.1 °F 39.2 °F 39.9 °F 92% 30.00 in 10.0 mi WNW 4.6 mph - N/A   Overcast
10:53 AM 43.0 °F 40.3 °F 41.0 °F 93% 30.01 in 10.0 mi WNW 4.6 mph - N/A   Overcast
11:53 AM 48.0 °F - 43.0 °F 83% 30.02 in 10.0 mi WNW 8.1 mph - 0.00 in Rain Light Rain
12:53 PM 50.0 °F - 43.0 °F 77% 30.01 in 10.0 mi NNW 4.6 mph - 0.00 in   Overcast
1:53 PM 53.1 °F - 42.1 °F 66% 30.01 in 10.0 mi WSW 9.2 mph - N/A   Overcast
2:53 PM 52.0 °F - 43.0 °F 71% 30.06 in 10.0 mi West 13.8 mph 24.2 mph 0.00 in Rain Light Rain
3:53 PM 52.0 °F - 44.1 °F 74% 30.08 in 10.0 mi West 10.4 mph 19.6 mph 0.00 in   Overcast
4:53 PM 51.1 °F - 43.0 °F 74% 30.11 in 10.0 mi West 12.7 mph - N/A   Overcast
5:53 PM 51.1 °F - 42.1 °F 71% 30.13 in 10.0 mi WNW 15.0 mph 20.7 mph N/A   Overcast
6:53 PM 52.0 °F - 41.0 °F 66% 30.15 in 10.0 mi WSW 12.7 mph 21.9 mph N/A   Overcast
7:53 PM 53.1 °F - 39.9 °F 61% 30.17 in 10.0 mi West 13.8 mph - N/A   Overcast
8:53 PM 52.0 °F - 41.0 °F 66% 30.19 in 10.0 mi WSW 9.2 mph 19.6 mph N/A   Overcast
9:53 PM 52.0 °F - 42.1 °F 69% 30.21 in 10.0 mi West 15.0 mph - N/A   Overcast
10:53 PM 52.0 °F - 42.1 °F 69% 30.23 in 10.0 mi West 16.1 mph 23.0 mph N/A   Overcast
11:53 PM 51.1 °F - 43.0 °F 74% 30.25 in 10.0 mi West 15.0 mph 25.3 mph N/A   Overcast